Showing default

CONTECSAT-1, 59117

Orbit data source: Space-Track

CONTECSAT-1, 59117 is a payload satellite owned by CONTEC (KR) in SSO that was launched on Mon, 04 Mar 2024 UTC via an FALCON 9 launch vehicle from the Air Force Western Test Range (AFWTR). Payload-class satellites include a variety of spacecraft equipped with specific instruments for various scientific and technological missions. These include communications satellites like Starlink; space stations such as the ISS; scientific satellites like the Hubble; Earth observation satellites from companies like Planet Labs, Umbra, and HawkEye 360; GPS; miniature CubeSats for education and research; and military/defense satellites.

Loading next visibility...
Identifier
59117, 2024-043V
Orbit
SSO
Country
Flag of KRKR / SKOR
Related business
Manufacturer
CONTEC
Mission
Operational Commercial Imaging
Bus & Motor
CUBESAT 16U, Unknown motor
Mass
~20 kg wet, ~20 kg dry
Launch date (UTC)
2024-03-04 (2 years ago)
Launch vehicle
FALCON 9
Launch site
Air Force Western Test Range (AFWTR)
Object type
Payload
Rocket body
Debris
Shape & HBR
Box, 0.1 m
Radar Cross Section
0.080 m², Medium (>0.1 m² and < 1m²)

Expand to show TLE details & history
Last TLE update: 12 hours ago

TLE from 12 hours ago
0 CONTECSAT-1
1 59117U 24043V   26175.31825037  .00008882  00000-0  24945-3 0  9999
2 59117  97.5647 316.5374 0009820 202.4169 157.6647 15.36739412128340
Epoch: 2026-06-24T07:38Z
TLE epoch observation values (Epoch: 2026-06-24T07:38:16.831Z)
Latitude
-0.00005°
Longitude
-70.50991°
Altitude
465.077 km
Speed
7.63 km/s
True Right ascension
21h 06m 08s
True Declination
0° 00' 00"
Sunlit
Object was in full shadow at epoch
Visualization orbit readout
Latitude
Unknown
Longitude
Unknown
Altitude
Unknown
Speed
Unknown
Apparent Right ascension
Unknown
Apparent Declination
Unknown
Sunlit
N/A
Visualization observer readout
Local Sidereal Time
06:50:34
Azimuth
Unknown
Elevation
Unknown
Doppler factor
Unknown
Orbital elements
Apogee altitude
459.417 km
Perigee altitude
446.001 km
Semi-major axis
6,830.846 km
Eccentricity
0.00098
Inclination
97.5647°
RAAN
316.5374°
Arg. of periapsis
202.4169°
True anomaly
157.70742°
Mean anomaly
157.6647°
Eccentric anomaly
157.68606°
Mean motion
3.84443 °/min
Orbital period
93.64 mins
BSTAR
0.00024945
Loading maneuver chart data...
Computing Atmospheric mass density...
Loading historical data...
Loading historical data...
Loading historical data...
Loading historical data...
Loading historical data...
Loading historical data...
Loading historical data...

Documentation

Showing up to 5 results
|